User: anonymous   Login
Location: Unspecified
(0.0000°N, 0.0000°E)
Time: 20:34:54
(UTC+00:00)
Language:

SICRAL 1B - Orbit

View from above orbital plane
View from above orbital plane
View from above satellite
View from above satellite

Ground track
Ground track

The orbit data is extracted from the following two-line orbital elements,

1 34810U 09020A   21127.61793184 0.00000000  00000-0  00000-0 0    02
2 34810   0.0447  99.8595 0004003  10.1058 349.9362  1.00270000    06
Epoch (UTC): 07 May 2021 14:49:49
Eccentricity: 0.0004003
inclination: 0.0447°
perigee height: 35770 km
apogee height: 35803 km
right ascension of ascending node: 99.8595°
argument of perigee: 10.1058°
revolutions per day: 1.00270000
mean anomaly at epoch: 349.9362°
orbit number at epoch: 0

The dashed part of the orbit path shows where the satellite is in the earth's shadow,  

DLR